Location: Asheville, NC
(35.6000°N, 82.5500°W)
Time: 17:33:58
(UTC-04:00)

STRAND 1 - Pass Details

Date: 09 January 2018
Orbit: 768 x 781 km, 98.5° (Epoch: 20 July)

Event Time Altitude Azimuth Distance (km) Brightness Sun altitude
Exits shadow 20:44:19 16° 221° (SW) 1,941 ? -37.9°
Drops below altitude 10° 20:45:20 10° 216° (SW) 2,319 ? -38.1°
Sets 20:47:43 0° 211° (SSW) 3,244 ? -38.6°
